Flag for Austria Weather past 2 weeks in Krems, Lower Austria, Austria

Now
66 °F

Scattered clouds.


Feels Like: 66 °F
Forecast: 45 / 75 °F
Wind: 23 mph from Southeast

Location: Tulln Airport

Current Time: Sep 18, 2014 at 10:33:58 AM

Latest Report: Sep 18, 2014 at 9:50 AM


Visibility: 25 mi

Pressure: 30.01 "Hg

Humidity: 56%

Dew point: 50 °F

Location of KremsLocation

Historic Weather in Krems — Graph

°F

Krems temperature yesterday

Maximum temperature yesterday: 73 °F (at 1:50 PM)
Minimum temperature yesterday: 57 °F (at 6:50 AM)
Average temperature yesterday: 67 °F

Past Weeks' High & Low Weather Summary

 TemperatureHumidityPressure
High79 °F (Sep 5, 1:50 PM)100% (Sep 3, 8:50 AM)30.09 "Hg (Sep 3, 8:50 AM)
Low54 °F (Sep 9, 6:50 AM)50% (Sep 10, 3:50 PM)29.83 "Hg (Sep 12, 5:50 AM)
Average64 °F82%30.01 "Hg
* Reported Sep 3 8:50 AM — Sep 18 8:50 AM, Krems, Weather by CustomWeather, © 2014

Note: Actual official high and low records may vary slightly from our data, if they occured in-between our weather recording intervals... More about our weather records

Advertising

Krems weather history for previous 24 hours

 ConditionsComfort  
Time TempWeatherWind HumidityBarometerVisibility
8:50 AM
Sep 18
63 °FScattered clouds.21 mph64%30.01 "Hg31 mi
7:50 AM61 °FPassing clouds.14 mph68%30.01 "Hg31 mi
6:50 AM61 °FPassing clouds.12 mph63%30.01 "Hg25 mi
5:50 AM59 °FClear.12 mph68%30.01 "Hg16 mi
10:50 PM
Sep 17
63 °FClear.9 mph73%30.04 "Hg16 mi
9:50 PM64 °FClear.12 mph68%30.04 "Hg16 mi
8:50 PM64 °FClear.12 mph73%30.04 "Hg19 mi
7:50 PM64 °FSunny.9 mph68%30.04 "Hg19 mi
6:50 PM68 °FSunny.12 mph60%30.04 "Hg22 mi
5:50 PM70 °FPassing clouds.12 mph60%30.04 "Hg22 mi
4:50 PM72 °FPassing clouds.13 mph53%30.04 "Hg22 mi
3:50 PM73 °FPassing clouds.14 mph50%30.04 "Hg22 mi
2:50 PM73 °FPassing clouds.14 mph53%30.04 "Hg22 mi
1:50 PM73 °FPassing clouds.14 mph57%30.04 "Hg22 mi
12:50 PM72 °FPassing clouds.13 mph53%30.07 "Hg22 mi
11:50 AM70 °FPassing clouds.14 mph60%30.07 "Hg25 mi
10:50 AM68 °FPassing clouds.10 mph64%30.07 "Hg25 mi
Weather by CustomWeather, © 2014

See weather overviewHow to use our weather pages